Погода Боковская

Хотите узнать прогноз погоды Боковская? Тогда Вам сюда: Погода Боковская

Поиск расширенной информации на нашем сайте:

Полезная информация:

Новости сайта



02.01.2020
Опубликован Долгосрочный прогноз погоды по городам России и ближнего зарубежья на январь 2020 года.
Карты: Прогноз на январь и февраль 2020 года, Сравнение прогнозируемой аномалии приземной температуры воздуха на январь 2020 года по разным моделям.




Погода Боковская - сегодня

Время (UTC), дата Ветер
(°,м/с) 
Видим.   Явления Облачность Т
(°С)
Тd
(°С)
f(%) Тe
(°С)
Pmin
(гПа)
dP
(гПа)
Po
(мм)
O2
(г/м3)
Тmin Tmax R s Состояние
почвы
15 18.10.20 290 (З) 20000 м  пыльный позёмок  9/0 средняя 
[Ac As]
+16.2 -0.1 33 +17  1008.2  1.4  748  284    +26.2       
18 18.10.20 280 (З) 20000 м    ясно 
+13.9 +7.1 64 +15  1014.5  1.8  753  287           
21 18.10.20 280 (З) 20000 м    5/0 средняя 
[Ac As]
+11.5 +5.5 67 +13  1016.2  1.6  754  291           
00 19.10.20 280 (З) 20000 м    ясно 
+6.1 +3.7 85 +7  1017.4  755  297           
03 19.10.20 270 (З) 20000 м    3/0 средняя 
[Ac As]
+4.8 +3.4 91 +4  1018.9  1.4  756  299  +4.6        полностью
покрыта
пылью 
06 19.10.20 310 (СЗ) 20000 м    6/0 средняя, верхняя 
[Ac As|Ci]
+7.4 +4 79 +7  1020.2  1.4  757  296  +3.3         
09 19.10.20 290 (З) 20000 м    8/0 верхняя 
[Ci]
+13.8 +1 42 +14  1019.1  -0.8  756  290           
12 19.10.20 320 (СЗ) 20000 м    8/0 средняя, верхняя 
[Ac As|Ci fib]
+15 -0.6 34 +16  1018.1  -0.9  755  289           
15 19.10.20 260 (З) 20000 м    9/0 средняя, верхняя 
[Ac As|Ci fib]
+10.6 +0.7 50 +12  1018.2  -0.2  755  293    +15.3       
18 19.10.20 310 (СЗ) 20000 м    10/0 средняя 
[Ac und]
+9.7 -0.1 50 +11  1019.1  0.9  756  294           
21 19.10.20 300 (СЗ) 20000 м    ясно 
+5.6 +0.4 69 +6  1020.2  0.9  757  299           
00 20.10.20 тихо ()   20000 м    4/0 средняя 
[Ac As]
+1.3 -1.2 83 +1  1021.4  757  304           
03 20.10.20 290 (З) 20000 м    8/0 средняя 
[Ac As]
+1.3 -0.5 88 +1  1022.3  0.9  758  304  +0.8        полностью
покрыта
пылью 
06 20.10.20 290 (З) 20000 м    ясно 
+6.8 +2.6 75 +7  1023.3  1.2  759  298  +0.6         
09 20.10.20 260 (З) 20000 м    6/6 1000 м 
[Cu hum]
+12.1 -2.9 35 +12  1022.9  -0.2  759  293           
12 20.10.20 260 (З) 4{10}  20000 м  пыльный позёмок  3/3 1000 м 
[Cu hum]
+12.9 -6.2 26 +12  1021.9  -1  758  292           
15 20.10.20 240 (ЮЗ) 20000 м    3/0 средняя 
[Ac lent]
+8.5 -5.3 37 +9  1022.5  0.4  758  297    +13.1       
18 20.10.20 230 (ЮЗ) 20000 м    ясно 
+7.4 -4.5 43 +7  1023  0.5  759  298           
21 20.10.20 250 (З) 20000 м    ясно 
+5.6 -2.9 54 +5  1024  0.9  759  300           
00 21.10.20 280 (З) 20000 м    ясно 
+2.5 -2.7 69 +2  1025  0.9  760  304           
03 21.10.20 270 (З) 20000 м    ясно 
+1.3 -2.3 77 1026.3  1.2  761  305  +0.3        полностью
покрыта
пылью 
06 21.10.20 280 (З) 20000 м    ясно 
+4.4 -0.6 70 +3  1027.9  1.8  762  302  -1.2         
09 21.10.20 280 (З) 20000 м    9/3 600 м верхняя 
[Cu hum|Ci fib]
+8.6 -2.4 46 +7  1027.6  -0.2  762  298           
12 21.10.20 280 (З) 20000 м    8/0 верхняя 
[Ci fib]
+9.9 -4 37 +9  1026.6  -0.9  761  297           
15 21.10.20 300 (СЗ) 20000 м    10/3 600 м кучево-дожд., средняя 
[Cb cap|Ac As]
+7.5 -4 44 +8  1026.8  0.1  762  299    +10.2       
Время (UTC), дата Ветер
(°,м/с) 
Видим.   Явления Облачность Т
(°С)
Тd
(°С)
f(%) Тe
(°С)
Pmin
(гПа)
dP
(гПа)
Po
(мм)
O2
(г/м3)
Тmin Tmax R s Состояние
почвы

Для получения пояснительной информации подведите курсор к названию столбца.

ПОГОДА Боковская - архив

Всё, что Вы хотите узнать о погоде Боковская - удобно и подробно!

Выберите нужную дату (начиная с 1 января 2019* года) и нажмите кнопку "Найти".
Будут отображены архивные сводки погоды по пункту Боковская, начиная с указанной даты.


Отображать данные в формате CSV (для использования в таблицах Excel)


Внимание! Наш архив погоды предназначен исключительно для личного некоммерческого использования в познавательных целях. Если Вам необходимы официальные справки о состоянии погоды (для производственных, юридических, коммерческих и т.п. целей), обращайтесь в органы Росгидромета.

*Примечание: данная дата относится к архиву по метеостанциям СССР (Россия, СНГ, Балтия).
Архив по метеостанциям Зарубежной Европы и Азии (кроме Китая) хранится 10 дней, по другим регионам земного шара (Китай, Африка, Америка, Австралия, Океания) - 1 день.

Боковская - район местоположения метеостанции


Название, широта, долгота, высота метеостанции:
Боковская 49.2°ш. 41.8°д. 91 м над ур. моря [Российская Федерация]

Дополнительная информация

В oтличие oт бoльшинства пoгoдных сайтoв мы публикуем пoдрoбную метеoинфoрмацию в детальнoм прoфессиoнальнoм фoрмате.

Характеристики температуры и влажнoсти вoздуха измеряются на высoте 2 м в тени вдали oт зданий и деревьев.
Скoрoсть ветра измеряется на высoте 10 м (на урoвне рoста челoвека скoрoсть ветра ниже в 1.5-2 раза). Если метеoстанция нахoдится в гoрoде или в лесу, тo скoрoсть ветра занижена на 2-4 м/с пo сравнению с oткрытым местoм. Скoрoсть ветра над акватoриями крупных рек и oзёр, а также на вершинах хoлмoв на 2-5 м/с выше, чем в oбычных услoвиях.
Атмoсфернoе давление в разных тoчках местнoсти мoжет значительнo oтличаться oт давления на метеoстанции, в зависимoсти oт услoвий рельефа (при пoдъёме на 10 м давление пoнижается примернo на 1 мм рт.ст.).